TimeCDT,TemperatureF,Dew PointF,Humidity,Sea Level PressureIn,VisibilityMPH,Wind Direction,Wind SpeedMPH,Gust SpeedMPH,PrecipitationIn,Events,Conditions,WindDirDegrees,DateUTC
12:35 AM,59.0,55.4,88,29.57,10.0,West,4.6,-,N/A,,Scattered Clouds,260,2013-05-21 05:35:00
12:55 AM,59.0,57.2,94,29.57,10.0,SSW,4.6,-,N/A,,Clear,210,2013-05-21 05:55:00
1:15 AM,59.0,57.2,94,29.57,10.0,South,6.9,-,N/A,,Clear,180,2013-05-21 06:15:00
1:35 AM,60.8,57.2,88,29.57,10.0,South,9.2,-,N/A,,Clear,180,2013-05-21 06:35:00
1:55 AM,60.8,55.4,82,29.57,10.0,South,11.5,-,N/A,,Partly Cloudy,180,2013-05-21 06:55:00
2:15 AM,60.8,55.4,82,29.57,10.0,South,9.2,-,N/A,,Partly Cloudy,180,2013-05-21 07:15:00
2:35 AM,60.8,57.2,88,29.56,10.0,South,11.5,-,N/A,,Mostly Cloudy,180,2013-05-21 07:35:00
2:55 AM,59.0,57.2,94,29.56,10.0,SSE,9.2,-,N/A,,Overcast,160,2013-05-21 07:55:00
3:15 AM,59.0,57.2,94,29.56,10.0,SSE,9.2,-,N/A,,Overcast,160,2013-05-21 08:15:00
3:35 AM,59.0,57.2,94,29.55,10.0,SSE,9.2,-,N/A,,Overcast,150,2013-05-21 08:35:00
3:55 AM,59.0,57.2,94,29.55,10.0,SSE,10.4,-,N/A,,Scattered Clouds,150,2013-05-21 08:55:00
4:15 AM,59.0,57.2,94,29.54,10.0,SSE,8.1,-,N/A,,Scattered Clouds,160,2013-05-21 09:15:00
4:35 AM,59.0,57.2,94,29.54,10.0,South,8.1,-,N/A,,Mostly Cloudy,170,2013-05-21 09:35:00
4:55 AM,59.0,57.2,94,29.54,10.0,South,6.9,-,N/A,,Overcast,170,2013-05-21 09:55:00
5:15 AM,60.8,57.2,88,29.55,10.0,South,9.2,-,N/A,,Overcast,170,2013-05-21 10:15:00
5:35 AM,60.8,57.2,88,29.55,10.0,South,9.2,-,N/A,,Overcast,180,2013-05-21 10:35:00
5:55 AM,60.8,57.2,88,29.56,10.0,South,8.1,-,N/A,,Overcast,180,2013-05-21 10:55:00
6:15 AM,59.0,57.2,94,29.57,10.0,South,8.1,-,N/A,,Overcast,180,2013-05-21 11:15:00
6:35 AM,60.8,57.2,88,29.58,10.0,South,9.2,-,N/A,,Overcast,180,2013-05-21 11:35:00
6:55 AM,60.8,57.2,88,29.58,10.0,South,9.2,-,N/A,,Overcast,190,2013-05-21 11:55:00
7:15 AM,60.8,57.2,88,29.59,-9999.0,SW,8.1,-,N/A,,Overcast,220,2013-05-21 12:15:00
7:35 AM,60.8,57.2,88,29.59,10.0,WSW,9.2,16.1,N/A,,Mostly Cloudy,240,2013-05-21 12:35:00
7:55 AM,60.8,57.2,88,29.59,10.0,WSW,12.7,-,N/A,,Partly Cloudy,240,2013-05-21 12:55:00
8:15 AM,60.8,57.2,88,29.60,10.0,WSW,13.8,-,N/A,,Mostly Cloudy,250,2013-05-21 13:15:00
8:35 AM,60.8,55.4,82,29.61,9.0,WSW,12.7,19.6,N/A,,Overcast,250,2013-05-21 13:35:00
8:55 AM,60.8,55.4,82,29.61,10.0,West,12.7,-,N/A,,Overcast,270,2013-05-21 13:55:00
9:15 AM,60.8,55.4,82,29.62,10.0,West,12.7,-,N/A,,Overcast,260,2013-05-21 14:15:00
9:35 AM,60.8,57.2,88,29.62,9.0,WSW,10.4,-,N/A,,Light Drizzle,240,2013-05-21 14:35:00
9:55 AM,60.8,55.4,82,29.62,10.0,WSW,8.1,15.0,N/A,,Overcast,240,2013-05-21 14:55:00
10:15 AM,60.8,55.4,82,29.62,10.0,SW,9.2,-,N/A,,Overcast,230,2013-05-21 15:15:00
10:35 AM,62.6,55.4,77,29.63,10.0,SW,12.7,-,N/A,,Overcast,230,2013-05-21 15:35:00
10:55 AM,62.6,53.6,72,29.63,10.0,SW,15.0,-,N/A,,Overcast,230,2013-05-21 15:55:00
11:15 AM,62.6,55.4,77,29.64,10.0,SW,16.1,21.9,N/A,,Overcast,230,2013-05-21 16:15:00
11:35 AM,62.6,53.6,72,29.65,10.0,SW,13.8,20.7,N/A,,Overcast,230,2013-05-21 16:35:00
11:55 AM,62.6,51.8,68,29.64,10.0,WSW,11.5,-,N/A,,Overcast,240,2013-05-21 16:55:00
12:15 PM,62.6,53.6,72,29.65,10.0,WSW,13.8,-,N/A,,Overcast,250,2013-05-21 17:15:00
12:35 PM,60.8,53.6,77,29.65,10.0,WSW,11.5,20.7,N/A,,Overcast,240,2013-05-21 17:35:00
12:55 PM,64.4,53.6,68,29.66,10.0,WSW,15.0,20.7,N/A,,Overcast,250,2013-05-21 17:55:00
1:15 PM,62.6,51.8,68,29.66,10.0,SW,12.7,18.4,N/A,,Mostly Cloudy,220,2013-05-21 18:15:00
1:35 PM,64.4,53.6,68,29.66,10.0,SSW,11.5,18.4,N/A,,Overcast,210,2013-05-21 18:35:00
1:55 PM,62.6,51.8,68,29.67,10.0,SW,17.3,25.3,N/A,,Overcast,230,2013-05-21 18:55:00
2:15 PM,64.4,53.6,68,29.66,10.0,SW,13.8,19.6,N/A,,Overcast,230,2013-05-21 19:15:00
2:35 PM,66.2,53.6,64,29.65,10.0,SW,15.0,-,N/A,,Mostly Cloudy,220,2013-05-21 19:35:00
2:55 PM,64.4,51.8,64,29.65,10.0,SW,13.8,20.7,N/A,,Mostly Cloudy,230,2013-05-21 19:55:00
3:15 PM,66.2,50.0,56,29.66,10.0,SSW,16.1,23.0,N/A,,Mostly Cloudy,210,2013-05-21 20:15:00
3:35 PM,64.4,50.0,59,29.66,10.0,SSW,16.1,23.0,N/A,,Mostly Cloudy,210,2013-05-21 20:35:00
3:55 PM,64.4,51.8,64,29.67,10.0,SW,11.5,17.3,N/A,,Overcast,220,2013-05-21 20:55:00
4:15 PM,64.4,50.0,59,29.66,10.0,SW,11.5,-,N/A,,Overcast,230,2013-05-21 21:15:00
4:35 PM,64.4,51.8,64,29.66,10.0,SSW,13.8,-,N/A,,Overcast,200,2013-05-21 21:35:00
4:55 PM,64.4,51.8,64,29.67,10.0,SW,10.4,-,N/A,,Overcast,220,2013-05-21 21:55:00
5:15 PM,64.4,51.8,64,29.66,10.0,SSW,11.5,-,N/A,,Overcast,210,2013-05-21 22:15:00
5:35 PM,62.6,51.8,68,29.67,10.0,West,6.9,-,N/A,,Overcast,270,2013-05-21 22:35:00
5:55 PM,62.6,51.8,68,29.66,10.0,WNW,4.6,-,N/A,,Overcast,290,2013-05-21 22:55:00
6:15 PM,62.6,51.8,68,29.66,10.0,West,3.5,-,N/A,,Overcast,280,2013-05-21 23:15:00
6:35 PM,62.6,51.8,68,29.66,10.0,WNW,4.6,-,N/A,,Overcast,290,2013-05-21 23:35:00
6:55 PM,62.6,53.6,72,29.67,10.0,Calm,Calm,-,N/A,,Overcast,0,2013-05-21 23:55:00
7:15 PM,62.6,51.8,68,29.67,10.0,Calm,Calm,-,N/A,,Overcast,0,2013-05-22 00:15:00
7:35 PM,62.6,51.8,68,29.67,10.0,Calm,Calm,-,N/A,,Overcast,0,2013-05-22 00:35:00
7:55 PM,62.6,51.8,68,29.67,10.0,Calm,Calm,-,N/A,,Overcast,0,2013-05-22 00:55:00
8:15 PM,62.6,55.4,77,29.67,10.0,Calm,Calm,-,N/A,,Overcast,0,2013-05-22 01:15:00
8:35 PM,60.8,53.6,77,29.67,10.0,Calm,Calm,-,N/A,,Overcast,0,2013-05-22 01:35:00
8:55 PM,60.8,55.4,82,29.67,10.0,Calm,Calm,-,N/A,,Overcast,0,2013-05-22 01:55:00
9:15 PM,60.8,53.6,77,29.68,10.0,Calm,Calm,-,N/A,,Overcast,0,2013-05-22 02:15:00
9:35 PM,60.8,55.4,82,29.68,10.0,Calm,Calm,-,N/A,,Overcast,0,2013-05-22 02:35:00
9:55 PM,60.8,55.4,82,29.68,10.0,ENE,3.5,-,N/A,,Overcast,70,2013-05-22 02:55:00
10:15 PM,60.8,53.6,77,29.68,10.0,Calm,Calm,-,N/A,,Overcast,0,2013-05-22 03:15:00
10:35 PM,60.8,53.6,77,29.68,10.0,East,3.5,-,N/A,,Overcast,80,2013-05-22 03:35:00
10:55 PM,60.8,53.6,77,29.68,10.0,Calm,Calm,-,N/A,,Overcast,0,2013-05-22 03:55:00
11:15 PM,60.8,55.4,82,29.68,10.0,Calm,Calm,-,N/A,,Overcast,0,2013-05-22 04:15:00
11:35 PM,59.0,55.4,88,29.67,10.0,Calm,Calm,-,N/A,,Overcast,0,2013-05-22 04:35:00
11:55 PM,59.0,55.4,88,29.68,10.0,Calm,Calm,-,N/A,,Overcast,0,2013-05-22 04:55:00